Weather in Kozatske

Ukraine / Sumi District     51°18′06″N   33°30′43″E
temp.,
°C
wind,
m/s
gust,
m/s
humid.,
%
clouds,
%
prec.,
mm/h
press.,
hPa
HPBL,
m
19 january, tue
tue1923:00−13nnw2394100 0.3 1018287
02:00−14nnw3594100 0.4 1019351
05:00−14nw2393100 0.2 1019311
08:00−14nw249299 0.3 1019398
11:00−14nw2384100 0.1 1020497
14:00−13wnw2485100 0.1 1019590
17:00−14w2293100 0.1 102023
20:00−15w229597 0.1 102127
20 january, wed
wed2023:00−16w129673 0.0 102221
02:00−16w129671 0.0 102320
05:00−16wsw119517 0.0 102320
08:00−16s22939 0.0 102421
11:00−13s23860 0.0 1024254
14:00−12s34881 0.0 1024310
17:00−14sse35940 0.0 102499
20:00−14sse489314 0.0 1025181
21 january, thu
thu2123:00−14s5109045 0.0 1024238
02:00−13s5109032 0.0 1024263
05:00−12s6129454 0.0 1022291
08:00−8s6149377 0.1 1022448
11:00−4ssw81393100 0.4 1021533
14:00−2ssw71391100 0.5 1020624
17:00−1ssw61392100 0.0 1019517
20:00−1ssw7139398 0.0 1019523
22 january, fri
fri2223:000ssw71293100 0.0 1018520
02:000ssw61293100 0.0 1018503
05:000s5129493 0.0 1016410
08:00−1ssw6109488 0.0 1016354
11:000ssw7138991 0.0 1015392
14:00+1ssw6129594 0.0 1014430
17:00+1s7139597 0.0 1014399
20:00+2s7139799 0.0 1013451
23 january, sat
sat2323:00+2s71396100 0.0 1013458
02:00+2s61298100 0.0 1012451
05:00+2s51297100 0.0 1011388
08:00+3s61396100 0.0 1011441
11:00+3s61397100 0.0 1010463
14:00+3sse61396100 0.0 1009423
17:00+3sse61496100 0.0 1009382
20:00+4s61495100 0.0 1008397